User: anonymous   Login
Location: La Vergne
(36.0160°N, 86.5820°W)
Time: 17:36:04
(UTC-05:00)
Language:

Cosmos 2341 Rocket - Orbit

View from above orbital plane
View from above orbital plane
View from above satellite
View from above satellite

Ground track
Ground track

The orbit data is extracted from the following two-line orbital elements,

1 24773U 97017B   18111.18684174 -.00000048  00000-0 -67383-4 0  9993
2 24773  82.9198 145.3353 0024829 163.0164 260.6204 13.73611072 53180
Epoch (UTC): 21 April 2018 04:29:03
Eccentricity: 0.0024829
inclination: 82.9198°
perigee height: 968 km
apogee height: 1005 km
right ascension of ascending node: 145.3353°
argument of perigee: 163.0164°
revolutions per day: 13.73611072
mean anomaly at epoch: 260.6204°
orbit number at epoch: 5318

The dashed part of the orbit path shows where the satellite is in the earth's shadow,  

DLR